Wind_Speed
54 54 54 55 57 58 58 59 59 59 58 59 59 57 57 58 61 64 68 70 66 62 60 60 64 65 65 69 70 69 70 64 60 65 66 62 61 59 55 49 39 37 38 35 31 29 31 36 36 30 20 22 35 40 37 37 35 34 34 33 41 49 51 55 62 58 50 48 47 44 40 38 38 37 37 36 37 37 36 34 32 32 35 36 35 37
51 51 51 53 55 55 55 55 55 55 55 58 56 53 57 58 60 61 64 71 69 61 59 60 63 65 65 66 67 68 71 67 58 61 66 62 60 58 53 48 40 39 40 35 33 33 34 37 39 32 21 17 27 39 38 33 31 30 28 28 33 43 48 50 58 63 59 53 48 44 43 41 39 38 38 40 42 42 38 34 31 32 36 38 39 42
48 49 50 51 52 51 51 50 49 49 51 54 51 50 55 55 57 57 57 67 68 59 56 57 58 62 63 63 63 63 67 68 59 56 63 61 57 57 53 48 42 43 46 42 37 36 36 37 41 37 29 22 18 28 31 25 23 24 23 25 31 39 47 51 58 65 65 61 53 45 42 43 43 40 39 43 47 47 45 41 38 37 39 43 46 47
46 49 50 50 50 49 48 47 46 48 50 50 48 49 53 53 54 55 55 63 65 59 54 53 56 60 60 59 60 59 61 66 60 52 57 58 54 54 54 50 44 44 50 50 47 45 42 41 43 41 35 28 18 17 23 21 23 28 31 33 35 42 50 57 64 67 64 63 60 54 48 46 47 47 46 47 49 50 51 51 50 48 46 46 47 48
46 49 50 48 48 47 46 45 46 48 48 49 48 50 52 53 54 55 57 63 63 60 55 54 58 59 59 59 59 58 58 62 60 52 52 55 52 52 55 51 43 41 47 53 55 53 49 46 45 40 33 26 20 14 21 28 33 37 40 42 41 45 52 57 61 65 64 65 66 63 57 53 52 52 52 52 52 52 53 53 53 51 50 50 50 51
49 51 51 49 48 47 46 47 49 49 49 50 49 50 52 53 54 54 57 62 63 61 58 59 60 59 59 59 59 61 59 59 59 54 50 52 52 50 53 50 41 38 43 50 55 54 52 52 50 42 31 24 20 18 26 37 41 42 44 47 47 48 51 52 53 56 62 66 69 67 62 60 59 58 57 55 52 52 54 55 56 56 56 56 57 57
51 53 53 51 49 48 49 51 51 51 52 52 51 52 54 56 56 55 57 62 63 62 61 62 61 59 59 59 60 62 60 57 58 57 51 50 51 49 51 50 39 35 40 47 51 51 52 54 54 48 36 26 24 25 30 38 42 45 48 50 50 47 47 49 49 51 55 60 64 66 65 64 64 65 65 64 61 60 61 62 62 61 60 60 61 60
53 55 54 53 51 50 52 53 53 52 53 54 55 56 57 58 57 57 59 62 63 63 61 62 63 62 59 60 63 62 58 55 56 57 53 50 50 48 49 48 37 33 38 43 46 48 50 52 55 52 41 32 27 26 30 38 44 49 51 51 50 48 46 46 48 49 51 56 59 60 63 64 65 66 68 70 70 69 67 66 63 63 63 64 63 59
55 56 56 55 54 53 54 54 54 54 54 55 58 59 59 58 58 60 61 61 62 63 59 60 63 63 59 59 62 60 56 54 54 56 52 47 47 46 47 45 35 32 36 41 44 46 47 49 53 54 47 41 33 32 37 40 43 48 51 51 50 50 50 48 49 49 49 52 56 58 60 62 63 64 65 66 67 68 68 67 64 63 61 60 59 57
58 58 58 58 56 54 55 56 56 56 56 57 59 60 59 58 59 62 61 60 61 60 56 58 63 62 58 57 58 56 53 51 50 51 48 44 43 42 41 38 31 31 36 40 42 40 38 38 46 54 53 48 42 43 46 41 41 44 48 50 50 50 52 51 51 50 49 49 52 55 55 57 59 61 63 65 66 66 66 66 63 60 56 53 54 50
62 60 59 60 57 55 57 58 58 59 58 59 61 60 60 60 61 61 60 59 59 56 53 57 61 60 55 53 53 51 50 46 44 45 43 37 36 35 32 27 25 29 34 38 38 35 33 35 43 52 55 53 51 51 48 42 41 41 44 49 51 51 53 54 53 51 49 47 49 51 48 48 52 56 59 63 64 64 62 62 60 56 53 50 47 44
64 63 62 62 61 59 61 61 60 61 59 59 60 61 61 61 61 59 57 58 57 54 53 55 57 56 51 47 46 44 44 41 39 40 38 30 27 29 29 24 23 28 31 35 37 35 37 39 39 44 49 52 53 54 51 44 40 40 44 47 50 54 54 54 53 50 48 47 47 49 44 39 40 47 53 56 57 59 59 58 54 49 47 44 40 40
66 67 64 63 64 63 62 62 61 60 59 59 61 62 62 62 60 58 57 58 56 52 52 53 51 50 45 41 39 37 38 37 35 35 32 27 25 24 24 22 22 27 29 31 34 33 34 35 33 35 41 45 50 54 54 47 41 40 43 44 47 53 55 55 52 50 49 48 47 47 43 35 34 39 46 49 50 51 51 50 46 43 42 41 40 41
68 69 66 64 65 64 63 62 61 60 60 60 62 63 62 61 60 57 57 59 56 50 49 48 46 44 38 34 31 30 29 30 30 29 25 24 25 22 19 19 21 26 26 27 29 30 31 32 32 32 33 36 41 47 50 48 44 42 42 43 46 50 52 53 52 51 50 49 49 47 44 40 39 41 43 44 46 44 43 43 40 39 40 41 42 43
70 69 68 66 65 64 62 61 61 61 60 60 62 63 61 60 59 58 58 57 53 47 44 42 41 36 28 25 26 27 26 25 24 23 21 21 24 22 18 19 23 25 25 25 27 30 31 31 31 29 27 27 27 31 37 42 44 43 43 45 48 50 51 51 51 52 50 47 48 48 47 45 45 45 44 43 44 42 41 42 39 36 40 44 45 45
70 69 67 66 64 63 60 60 60 60 60 60 61 62 60 58 58 58 56 53 48 43 40 38 33 26 21 21 26 28 27 26 21 19 20 20 22 23 20 22 24 24 25 26 27 27 25 26 29 27 24 21 16 17 26 33 36 39 42 47 52 52 51 51 52 52 51 47 45 45 45 46 46 47 45 45 45 43 42 43 42 39 40 43 45 44
69 68 68 66 64 62 60 60 61 60 60 60 60 59 58 58 58 56 52 48 44 39 37 34 29 25 22 21 24 25 25 24 20 17 17 17 20 21 21 23 22 20 22 24 25 24 18 17 20 19 16 13 11 14 23 30 34 38 42 48 54 54 50 49 51 53 52 49 46 46 46 46 47 47 47 47 47 45 43 44 45 44 43 43 42 40
68 68 69 67 65 63 62 62 61 60 59 60 59 58 58 58 55 50 46 43 40 36 33 31 29 29 25 18 20 24 23 21 18 17 16 15 19 19 18 20 21 22 24 25 27 27 21 15 13 11 12 15 19 26 33 38 40 43 45 47 52 53 48 44 45 47 50 49 47 48 49 50 50 50 49 50 49 46 44 44 45 46 46 45 43 41
70 70 69 68 66 64 62 61 61 59 58 58 58 57 56 54 48 44 41 39 37 33 30 27 26 28 25 19 21 24 22 18 17 17 15 15 18 18 17 19 21 23 26 29 31 31 27 21 17 16 18 26 36 42 42 42 42 43 45 46 48 48 42 37 34 35 41 43 42 44 48 51 52 50 50 51 50 48 46 44 44 46 48 48 45 43
73 71 69 67 65 62 61 60 59 57 57 57 56 54 51 47 42 40 39 37 35 31 27 26 25 24 25 25 25 23 19 17 16 16 16 16 16 15 13 16 21 21 23 28 33 33 33 31 28 29 31 38 46 46 43 42 42 43 45 45 45 43 38 32 27 27 31 34 36 40 44 51 52 49 47 47 48 47 46 44 43 46 48 47 44 43
72 69 66 64 61 59 59 58 57 57 57 56 54 50 45 42 41 39 36 33 32 27 23 25 26 23 23 27 27 22 17 15 16 17 18 17 13 10 11 18 24 26 26 31 36 36 36 34 31 34 40 45 47 45 43 44 44 44 45 46 45 42 38 34 31 28 28 30 37 41 42 47 51 48 45 44 45 46 47 45 45 48 48 46 44 45
65 61 59 59 58 58 58 57 58 58 55 52 50 45 41 40 40 36 33 30 28 23 19 21 23 22 24 27 28 24 20 17 17 19 19 15 11 15 22 26 30 33 34 37 42 41 40 37 34 38 42 44 45 45 46 47 47 47 46 47 47 42 38 38 35 31 29 32 39 45 45 46 47 46 44 44 45 48 49 48 48 50 50 48 48 49
58 55 56 58 57 58 58 56 57 56 51 47 45 42 38 38 37 33 32 30 25 21 21 21 21 22 23 24 27 29 28 24 22 24 23 21 21 27 33 34 37 41 39 40 47 47 44 42 41 43 43 42 43 45 47 49 49 49 48 48 47 43 40 38 33 31 33 36 41 44 46 46 45 43 43 45 46 47 49 51 50 50 51 51 52 52
54 53 56 57 57 57 56 55 56 52 45 41 40 39 37 36 34 33 32 28 24 23 25 25 24 24 25 25 25 29 30 25 21 25 31 35 37 38 40 39 41 44 42 42 48 50 49 48 45 44 45 45 45 46 48 50 51 50 49 47 46 44 41 37 33 34 38 41 42 40 39 41 42 42 43 45 46 47 48 50 50 50 51 51 51 51
53 54 56 57 56 56 54 54 52 46 40 37 37 38 37 34 33 32 30 28 27 26 26 26 26 26 30 31 27 24 25 22 22 28 36 43 46 46 46 44 42 43 43 43 47 49 52 52 47 44 45 45 46 50 51 51 52 52 49 47 45 43 41 39 37 38 42 44 43 39 36 38 39 40 42 44 45 47 47 48 48 48 48 48 48 49
55 55 56 55 54 54 52 48 43 38 35 35 37 37 35 33 32 30 29 27 26 27 28 28 27 27 29 32 32 28 28 29 32 36 40 44 47 47 47 45 41 40 41 43 46 49 54 55 50 46 46 45 46 50 54 54 54 53 51 49 47 45 43 41 39 40 42 44 42 38 36 36 36 36 38 39 40 43 44 44 44 43 42 43 44 45
56 56 55 54 53 51 46 39 34 33 33 32 34 34 32 32 31 28 27 26 26 30 32 30 30 31 31 31 32 33 35 39 41 42 43 45 45 45 43 42 40 38 38 42 46 50 55 56 53 50 49 49 48 50 55 57 55 54 55 53 51 48 43 39 39 40 42 42 40 37 35 35 36 35 34 34 35 38 39 39 38 38 38 38 38 39
54 53 53 52 48 44 38 33 30 31 30 29 32 33 30 29 29 27 25 25 26 29 31 31 32 35 36 33 33 35 37 41 44 44 44 44 45 44 41 40 38 37 37 41 46 50 53 54 54 52 51 51 52 52 55 58 57 55 57 58 56 50 42 39 38 39 41 41 39 37 37 38 39 37 36 34 33 35 37 38 38 37 36 35 34 33
54 53 53 49 44 40 36 34 33 31 29 29 31 31 28 26 27 26 26 28 27 25 28 31 34 37 39 39 38 38 38 39 42 44 43 42 43 44 42 39 37 36 36 39 44 49 51 51 52 53 52 52 54 55 56 59 59 57 58 61 60 53 46 42 39 37 40 43 41 39 40 42 41 40 39 37 35 35 37 38 39 39 38 35 33 31
57 55 52 47 45 42 38 38 36 33 31 30 28 28 26 24 25 26 27 29 30 29 31 36 38 38 40 41 42 41 39 37 37 40 42 41 39 40 41 39 36 36 35 37 42 47 50 50 50 52 52 52 55 57 57 59 60 59 59 61 60 57 50 44 39 37 39 43 43 43 43 44 43 43 42 41 39 39 39 39 40 41 41 40 38 35
56 54 52 49 47 45 42 41 40 36 33 30 29 29 27 23 22 24 25 27 30 32 35 39 41 41 41 42 41 42 41 38 35 35 38 39 39 38 39 39 38 36 35 36 40 45 49 51 50 49 50 52 54 57 58 60 60 59 60 59 58 57 53 45 39 38 39 42 45 46 46 46 45 45 44 43 42 42 42 42 43 43 44 43 41 40
55 54 53 52 50 48 45 43 41 39 35 32 31 31 29 25 25 26 25 25 29 32 34 37 40 42 44 44 41 41 41 39 36 34 35 37 38 38 38 39 39 37 36 37 39 43 47 51 51 49 49 51 53 56 59 61 60 59 60 59 57 57 55 49 43 38 39 43 47 48 48 46 44 44 43 43 43 43 44 44 44 44 44 43 42 42
55 54 54 53 51 48 48 46 42 41 40 37 34 35 33 31 32 33 31 29 29 32 36 40 42 43 46 46 45 44 43 41 39 36 34 34 36 37 38 39 39 38 37 38 40 41 44 48 51 51 50 51 53 55 58 60 61 60 60 59 57 57 57 54 48 44 43 45 47 49 48 44 41 41 41 42 43 44 43 43 43 43 44 43 43 43
56 56 56 54 52 50 50 49 45 44 45 41 39 41 40 37 38 38 37 35 33 34 38 43 43 43 45 47 48 47 46 45 43 40 38 36 35 36 38 39 39 39 39 39 41 43 44 45 47 50 51 51 53 55 57 59 61 62 62 59 56 57 58 56 52 50 49 47 46 47 47 45 42 42 43 43 43 43 43 43 43 44 45 46 46 46
58 57 56 54 53 52 52 52 49 47 47 44 42 45 47 44 43 42 41 42 42 43 45 46 45 46 46 48 49 47 47 46 45 44 43 39 37 36 37 38 40 40 40 41 43 45 46 45 45 47 50 52 53 55 57 58 60 63 64 62 57 56 56 55 54 54 53 51 48 47 47 47 47 47 48 47 46 44 45 45 46 47 47 48 48 48
59 58 57 55 55 55 56 55 52 50 50 48 45 48 51 50 48 47 48 48 47 48 50 51 51 51 51 51 50 48 47 46 45 44 44 42 41 40 38 38 39 40 41 42 44 46 48 49 47 47 49 51 53 55 56 58 60 62 66 66 62 58 56 56 55 55 54 53 53 51 50 49 49 49 49 50 49 47 47 47 48 49 49 49 48 48
59 59 59 58 59 58 57 56 54 54 55 54 51 52 53 53 51 50 52 53 52 52 53 53 54 54 53 53 52 50 48 47 45 45 44 43 43 43 42 40 39 41 42 42 44 46 48 50 51 50 51 52 54 55 56 58 60 62 64 67 67 63 60 58 57 56 55 55 55 55 54 53 52 52 52 51 50 49 48 48 48 48 49 49 48 49
57 59 60 60 60 60 58 56 57 58 60 59 57 55 56 57 55 53 54 55 55 56 57 56 54 53 54 53 51 50 49 47 47 47 47 46 45 45 45 43 40 40 41 42 43 45 46 48 51 52 54 55 55 56 57 58 61 63 64 65 67 66 64 62 61 59 58 57 56 57 58 57 55 54 54 54 53 51 50 50 50 49 49 49 49 50
52 54 57 59 59 59 57 56 58 61 64 64 62 59 59 61 60 58 58 58 57 58 59 58 56 54 54 54 52 51 50 49 48 49 49 48 48 46 46 45 42 40 40 41 42 43 44 48 51 52 54 57 58 58 58 58 61 64 65 65 66 67 66 65 64 63 61 60 58 58 59 60 60 58 56 55 55 55 55 55 55 54 54 54 54 54
50 50 52 54 54 55 56 55 58 63 66 68 67 64 62 63 64 64 63 62 60 60 59 58 57 55 54 54 53 52 52 51 50 50 50 49 48 47 46 45 43 41 40 41 41 41 43 48 51 52 53 57 61 61 60 59 60 63 65 66 66 66 66 66 65 65 64 63 62 60 60 61 62 62 61 59 58 58 58 59 60 60 60 61 61 60
51 50 50 49 50 52 54 55 58 63 67 69 70 69 65 65 66 66 65 63 62 60 57 56 57 57 56 55 54 53 53 52 51 51 51 50 49 48 47 45 44 43 42 41 41 41 43 46 51 52 53 56 60 63 63 61 60 62 65 67 66 66 66 66 66 66 66 66 65 64 62 61 62 64 64 64 63 62 62 62 63 64 64 65 66 66
51 50 50 50 51 53 54 55 58 63 67 68 70 70 66 64 65 66 65 64 63 60 57 55 55 55 55 55 55 54 53 52 51 51 50 50 49 49 48 47 46 45 44 43 42 42 43 45 49 52 53 55 58 62 64 64 63 64 65 67 67 68 68 68 68 67 67 67 67 66 65 65 64 65 66 66 66 66 67 67 67 68 68 69 69 70
50 51 52 52 52 52 53 55 57 62 65 67 68 69 67 63 62 61 61 62 62 60 57 55 54 53 53 53 53 53 52 52 52 51 50 49 48 48 48 48 47 46 46 44 44 44 44 45 48 51 53 54 57 60 62 65 66 66 67 68 69 69 70 70 70 70 70 69 69 69 69 68 68 68 68 69 69 70 71 71 72 73 73 73 74 74
50 52 53 53 53 52 53 55 57 59 63 65 66 68 68 66 62 59 58 58 59 57 55 54 53 53 53 52 51 51 52 52 52 51 50 49 48 47 48 48 47 46 46 46 45 45 45 45 46 49 52 54 56 58 61 64 67 69 70 70 71 71 72 72 72 73 73 73 73 72 72 72 72 72 72 73 73 73 74 75 76 77 78 79 79 79
49 53 55 54 54 54 55 57 57 58 60 61 62 64 65 64 62 60 58 57 56 55 53 51 50 50 50 51 50 49 49 50 50 50 50 49 48 48 48 47 47 47 47 48 48 47 47 46 46 48 50 53 55 57 59 62 67 71 73 72 72 73 73 73 73 74 75 76 76 75 75 75 76 76 76 76 77 77 78 79 80 81 82 82 83 83
49 54 56 56 56 56 57 57 57 57 57 58 58 59 61 61 59 57 57 57 56 55 53 50 48 47 48 49 49 47 47 47 47 48 48 48 48 48 48 47 48 48 48 48 49 49 49 48 47 47 49 51 54 57 59 61 65 71 75 76 74 74 75 75 74 75 75 76 76 77 77 78 78 79 80 81 81 82 82 83 83 84 84 84 85 85
49 54 57 57 57 58 59 59 57 56 55 55 54 55 56 57 56 55 54 55 54 54 52 50 48 47 47 48 48 46 45 46 46 46 46 47 47 48 48 48 49 49 48 48 49 49 50 49 49 48 49 50 53 56 59 61 64 68 74 79 78 76 75 75 75 75 75 75 75 76 78 79 79 81 82 83 84 85 85 85 85 85 86 86 86 86
48 53 56 58 59 59 60 59 57 54 53 53 52 52 53 54 55 54 54 53 52 52 51 51 50 49 49 48 48 47 46 47 47 46 46 46 47 48 48 49 49 49 49 49 49 50 51 50 50 49 49 50 52 54 58 61 63 66 71 77 81 81 79 77 76 76 76 76 75 75 76 78 79 80 81 82 83 84 85 85 85 86 87 87 88 89
46 50 54 57 58 59 60 59 56 53 52 51 51 51 51 53 54 54 54 54 53 51 51 51 50 51 51 50 49 49 49 49 49 49 48 48 48 49 49 50 51 51 51 51 51 51 52 52 51 51 51 51 52 53 56 59 62 65 69 73 78 82 83 82 81 80 79 79 78 78 78 78 79 80 81 82 83 85 86 86 87 87 88 89 90 90
44 48 52 55 56 57 58 57 55 52 50 50 50 50 50 51 53 54 54 55 55 54 53 52 51 51 52 51 51 51 51 52 52 52 51 51 51 51 51 52 52 53 53 53 53 53 54 54 54 54 55 56 55 54 55 57 60 64 67 70 74 78 81 84 85 85 84 83 83 83 82 82 81 81 82 83 84 85 87 88 88 89 89 90 90 91
42 46 49 51 53 54 55 55 53 50 47 46 46 47 48 49 51 53 54 55 56 56 56 55 54 53 53 53 53 53 54 54 54 53 53 53 53 53 53 53 54 54 55 55 55 55 56 57 57 57 58 59 58 56 56 57 59 62 65 69 72 75 77 80 83 85 86 86 86 85 85 85 84 84 84 84 84 85 86 87 88 89 89 89 90 90
Wind_Direction
258 259 259 259 259 259 259 260 261 262 264 265 266 267 267 266 265 267 269 269 267 265 264 265 267 268 269 270 271 271 269 267 268 270 270 268 268 268 268 266 257 247 248 245 240 244 244 236 223 216 232 269 282 287 291 290 291 291 280 258 245 243 239 234 233 231 226 225 226 225 230 239 245 249 245 241 243 242 241 247 252 255 260 266 270 271
261 261 260 259 258 258 259 260 262 264 265 265 265 266 265 265 265 266 270 271 269 267 268 267 268 268 268 269 271 272 273 270 268 269 270 269 268 268 266 263 251 238 243 247 243 243 241 233 219 208 206 228 266 281 289 293 293 291 282 264 250 246 243 240 237 234 227 222 223 227 233 238 242 245 240 238 241 242 244 249 253 256 262 268 270 271
261 260 259 258 259 260 261 262 264 265 264 264 266 266 266 266 267 267 269 271 271 269 268 269 270 269 268 268 269 270 272 272 269 267 269 269 269 268 264 260 247 233 236 243 240 236 235 232 223 210 195 193 237 274 284 284 276 274 267 252 245 241 238 236 236 235 231 227 225 227 232 237 238 235 234 239 242 245 248 251 254 258 263 269 271 271
260 259 259 259 261 262 263 265 265 264 265 267 268 267 268 269 269 270 270 270 272 272 270 269 268 267 268 269 269 269 271 272 270 267 268 269 268 267 264 258 249 236 233 235 235 234 234 234 229 214 194 182 193 245 265 256 243 245 243 235 232 232 230 229 231 233 232 230 228 226 225 229 233 230 231 239 244 247 251 255 259 261 263 265 266 268
259 259 260 261 262 264 265 266 265 265 268 269 269 269 271 271 271 272 272 271 273 274 272 270 267 268 269 270 270 269 268 270 272 268 266 268 266 265 264 261 254 243 235 233 234 233 231 231 228 215 200 188 182 208 238 229 224 228 230 227 224 225 227 228 231 233 234 234 230 228 225 224 229 231 233 239 243 247 251 255 258 260 261 261 262 267
259 259 261 262 264 266 266 266 266 268 269 270 271 271 272 272 272 273 274 275 275 274 274 271 269 270 271 271 271 270 267 268 270 269 265 267 266 264 265 263 256 247 240 235 235 232 228 228 226 215 202 197 191 206 225 222 222 225 226 226 225 227 230 231 233 234 235 237 235 232 231 228 229 232 234 236 240 245 249 254 258 260 261 261 264 267
259 259 261 263 264 265 265 266 268 270 271 272 273 272 272 272 274 276 277 277 277 276 275 273 273 272 272 273 272 270 269 269 269 269 266 264 265 264 264 264 259 248 242 238 236 234 228 224 222 214 202 200 203 211 221 223 224 224 226 229 229 231 234 234 236 235 234 237 238 236 235 235 235 236 237 239 242 248 251 254 257 257 260 264 267 270
259 259 261 262 264 264 265 268 270 272 273 274 274 272 272 274 276 277 277 277 278 277 275 276 276 274 273 274 273 272 272 270 269 268 265 262 263 263 263 262 258 249 243 239 237 234 228 222 218 214 208 207 212 218 224 227 226 222 224 230 231 230 234 235 237 237 235 235 237 238 238 238 239 241 242 244 246 250 252 254 255 257 262 266 267 270
259 261 263 264 265 266 268 270 271 272 272 273 273 273 275 277 278 277 276 278 278 278 277 278 278 276 276 275 275 274 273 270 269 268 266 264 262 261 261 261 256 248 242 238 236 232 228 224 217 215 215 212 215 229 231 231 232 226 223 228 230 231 233 235 236 237 236 235 236 237 239 239 241 243 244 246 248 251 253 255 257 260 265 265 264 267
260 261 263 265 266 268 269 269 270 270 271 272 274 276 278 278 278 277 278 279 278 278 280 280 279 278 277 276 275 275 274 271 271 271 269 266 264 259 257 257 250 242 237 236 237 233 229 229 222 218 218 214 217 232 234 232 236 232 225 226 229 232 233 235 237 236 235 236 236 236 239 241 241 243 245 247 249 252 254 256 258 260 263 265 265 264
261 261 262 264 265 266 266 267 268 270 272 274 276 277 278 278 278 279 280 280 279 280 281 280 279 278 277 275 275 275 275 274 272 271 267 264 264 256 247 245 238 234 232 231 235 231 221 223 224 221 221 221 224 232 234 234 236 233 227 226 229 233 236 237 237 236 235 235 234 234 239 244 245 246 248 249 250 252 254 255 257 259 260 263 264 257
261 261 260 262 264 264 265 267 269 272 274 275 276 277 278 279 279 280 281 281 281 282 282 279 277 276 276 275 275 274 273 273 270 267 263 257 254 246 237 236 233 230 227 225 227 224 213 211 216 218 223 229 234 234 233 233 234 232 230 230 231 232 236 238 239 238 238 237 235 234 239 246 249 250 250 250 251 252 253 254 254 256 256 256 254 250
260 261 262 263 264 265 267 269 271 273 274 274 275 276 278 280 281 281 282 282 282 282 280 277 276 276 277 275 274 271 268 266 264 262 259 249 242 240 235 231 229 227 222 219 218 212 206 207 206 207 217 229 237 237 235 235 235 231 230 234 236 235 236 239 241 241 240 240 238 237 237 242 248 251 251 250 251 252 251 251 250 249 247 245 246 249
261 263 264 264 265 266 268 270 271 271 272 273 275 276 278 280 281 282 282 282 282 281 278 276 275 275 275 274 271 265 260 258 256 255 256 245 233 233 231 221 223 225 217 209 203 196 197 205 204 201 207 223 235 239 239 243 244 235 228 233 240 242 241 241 242 241 242 241 241 241 240 241 247 253 254 252 252 251 248 244 242 241 238 239 244 250
262 263 264 265 265 267 268 270 270 270 271 272 274 276 278 279 281 282 282 282 281 279 277 275 275 274 271 267 262 255 249 250 250 248 250 242 227 225 222 212 218 220 206 192 188 188 192 197 198 200 210 223 234 244 250 253 252 244 235 234 239 243 245 245 244 242 242 243 243 244 244 244 249 254 257 257 254 249 244 237 234 236 237 239 244 250
262 263 264 264 265 266 268 268 268 269 270 271 273 276 278 279 280 281 281 280 278 277 275 274 274 271 259 247 247 247 244 245 246 239 240 237 222 218 215 209 215 216 201 190 187 188 190 191 193 200 214 224 238 262 268 264 257 249 242 236 235 237 242 245 245 244 245 245 244 246 249 250 252 255 257 258 255 249 243 236 232 235 239 241 245 250
262 263 263 263 265 266 267 267 268 269 270 271 273 275 276 277 279 279 278 277 276 276 274 271 266 260 252 240 240 244 243 239 234 226 233 228 209 206 209 206 210 212 205 202 198 192 193 203 206 211 220 229 243 257 257 252 245 239 235 231 230 231 235 240 243 246 248 248 247 249 253 254 255 256 257 257 255 251 246 240 235 237 241 244 247 249
261 262 263 264 265 266 266 267 267 267 268 270 272 273 275 277 277 276 274 275 276 274 270 266 258 251 250 244 238 242 241 233 222 218 225 214 196 199 207 206 204 203 200 201 201 196 191 200 216 229 236 238 237 234 234 235 233 230 227 225 226 227 229 235 241 246 249 249 251 253 254 254 254 256 258 256 254 253 249 245 241 240 241 244 247 247
260 261 263 264 265 266 266 266 266 266 267 269 271 274 276 276 273 271 271 272 273 270 265 261 252 245 242 236 236 239 236 229 222 220 215 196 190 196 204 207 203 199 199 198 195 186 176 178 195 209 219 229 230 229 229 228 226 225 224 223 225 226 226 227 231 240 245 249 253 254 253 252 252 255 257 255 254 254 251 248 244 240 239 242 246 246
260 260 262 263 263 264 264 264 264 265 266 268 271 274 274 271 268 267 269 269 267 265 261 253 246 239 232 229 234 235 228 223 218 214 204 186 181 184 197 212 205 199 203 200 190 181 176 182 194 203 211 222 227 226 225 224 221 221 221 220 222 223 221 213 208 220 233 238 242 244 247 250 250 253 256 253 252 252 250 248 242 237 237 239 242 244
258 259 260 260 260 260 259 260 261 262 265 269 272 271 267 264 264 266 268 265 262 260 254 248 245 237 226 226 229 221 213 220 219 210 198 183 176 180 208 226 217 209 209 201 190 186 186 189 197 207 214 221 225 225 223 220 218 218 219 217 215 217 216 205 193 200 215 223 228 232 238 245 248 251 251 247 248 250 248 245 239 236 237 239 242 247
255 255 255 255 255 255 256 257 259 262 267 271 271 266 261 262 265 265 262 256 254 251 244 246 246 233 222 224 224 212 202 208 216 212 200 189 198 211 218 225 221 217 215 206 198 193 190 193 202 210 215 219 222 223 220 217 216 216 217 215 212 213 213 204 193 195 206 218 226 229 232 238 243 247 247 245 248 249 246 243 240 239 240 241 246 254
251 250 250 251 251 252 254 256 259 264 269 269 265 261 260 262 263 260 254 250 248 241 234 239 238 224 219 223 225 218 210 203 203 207 204 201 208 214 219 223 221 220 220 212 205 201 195 197 206 212 214 215 216 216 214 214 214 213 213 213 211 210 210 206 201 203 210 219 226 229 232 236 240 245 247 247 248 248 246 244 242 242 243 245 251 258
248 246 246 247 248 250 253 257 261 266 267 261 258 260 261 261 258 253 249 246 240 234 232 236 233 220 214 218 224 225 218 207 206 214 213 209 208 211 218 224 221 221 222 215 210 206 200 200 208 213 213 213 213 211 209 210 211 210 210 210 207 205 206 208 211 212 215 222 227 229 233 237 240 244 246 247 248 247 247 246 245 246 248 251 256 260
242 241 242 244 247 251 255 259 262 263 259 254 256 261 261 257 251 247 246 242 236 231 228 229 229 222 215 213 216 220 217 212 220 229 225 217 212 213 217 222 222 220 219 215 211 207 201 202 210 214 212 210 211 209 207 207 208 208 207 204 201 200 202 207 214 216 218 223 227 229 235 241 243 244 244 246 247 247 247 248 249 251 253 255 257 259
239 240 242 245 248 253 257 259 258 255 253 254 257 259 256 248 243 242 242 239 233 226 221 221 224 226 222 214 208 207 210 214 221 229 229 224 218 215 216 219 222 220 216 213 211 207 202 204 211 216 213 210 209 208 206 204 205 206 203 199 198 200 203 209 217 220 220 224 228 232 238 241 239 238 239 241 244 245 247 249 250 251 253 255 257 259
241 242 244 247 251 254 256 254 250 249 250 253 255 254 250 243 239 238 238 236 227 221 218 219 221 226 229 222 213 211 215 219 222 227 231 228 222 219 218 220 222 221 217 214 212 207 205 207 213 217 216 213 211 209 206 204 204 203 201 199 199 203 207 212 218 223 224 226 227 230 234 233 230 230 233 237 241 244 245 245 246 249 252 256 258 260
243 245 246 248 248 248 246 240 237 240 244 248 250 248 244 240 237 234 232 228 224 224 223 221 223 227 232 231 227 226 227 227 228 231 233 232 227 224 224 224 222 221 218 216 214 209 207 210 215 218 217 216 214 209 205 205 204 202 201 201 202 205 209 212 216 221 225 225 225 226 229 229 228 229 233 237 241 244 244 244 245 248 252 256 259 258
240 243 245 243 238 236 235 229 227 232 236 241 244 240 235 235 233 229 228 222 217 223 228 226 227 231 233 233 232 232 233 232 231 233 235 235 232 230 229 227 224 223 221 219 216 213 211 212 216 218 217 215 214 210 206 205 205 204 203 204 204 207 212 213 213 218 223 225 226 228 230 230 229 229 233 238 242 244 245 246 246 247 249 253 256 256
235 236 238 236 230 229 229 226 227 231 234 236 236 229 226 231 231 228 228 223 214 215 225 227 228 231 234 234 234 234 236 236 235 236 237 237 237 234 232 230 229 227 224 221 218 216 214 213 213 216 216 213 212 211 208 206 206 205 205 205 206 208 212 213 214 218 224 226 227 229 231 231 231 231 234 239 243 245 245 247 248 249 250 252 254 254
230 230 231 230 228 227 227 227 230 232 230 231 230 223 221 227 231 229 230 229 220 217 224 228 228 230 234 236 238 240 239 239 240 242 241 240 241 239 236 234 232 231 228 224 221 219 217 214 212 213 213 212 211 211 210 208 207 206 206 206 207 209 211 212 215 219 224 225 225 227 229 231 234 236 239 240 242 244 245 247 249 250 251 253 254 254
229 229 229 229 228 227 227 229 232 231 225 224 222 217 217 221 225 222 221 226 229 227 231 235 234 233 234 236 239 241 241 240 241 243 243 241 241 241 240 237 235 234 231 227 224 222 219 217 215 214 213 213 212 211 212 211 209 208 207 207 208 209 210 213 215 218 221 223 224 227 229 232 237 239 242 243 243 243 244 246 247 249 251 253 254 254
228 228 229 228 227 226 227 228 230 228 221 217 213 208 210 217 219 214 208 211 222 229 233 237 239 239 238 237 236 238 240 240 239 239 241 242 241 240 241 240 238 235 232 228 225 225 223 220 218 217 216 215 213 213 213 213 212 210 207 207 208 209 210 213 216 219 221 223 225 227 229 232 236 238 241 244 244 243 243 244 246 250 253 254 254 255
229 228 229 229 226 226 227 228 229 226 220 216 211 205 205 210 213 211 209 207 210 217 225 231 235 238 240 239 238 239 241 242 239 238 239 242 243 241 240 241 239 235 231 228 224 224 224 223 220 219 217 216 215 215 214 214 214 211 208 206 208 209 210 213 217 220 223 224 226 228 230 231 234 237 239 242 245 246 245 246 249 252 254 255 256 257
231 230 230 229 228 227 227 228 229 226 220 216 213 208 205 207 210 211 213 213 214 217 223 227 231 234 237 238 239 239 240 242 242 240 240 241 244 243 240 239 239 236 232 228 225 222 223 223 221 217 217 217 216 216 216 216 215 213 210 208 208 210 212 214 217 220 223 225 227 229 231 232 235 238 240 242 245 248 249 250 252 254 256 258 260 262
232 232 231 230 229 228 228 229 229 224 218 216 215 212 207 207 211 214 215 217 220 224 228 231 233 234 236 238 239 239 239 241 243 244 243 243 244 245 242 240 240 238 234 230 226 223 222 222 221 217 216 218 218 217 217 218 218 216 214 213 213 214 215 217 219 221 223 225 228 229 231 233 235 238 241 243 246 248 251 254 256 258 260 262 264 265
232 232 231 230 230 230 230 231 228 220 216 215 216 214 211 209 210 215 218 219 222 226 230 233 234 235 236 238 239 239 240 240 242 245 247 247 246 246 245 244 242 240 237 232 229 226 223 223 223 220 217 218 219 219 219 219 220 219 218 218 218 219 219 220 222 224 225 227 229 231 231 232 235 237 240 242 245 248 252 256 258 260 261 262 263 264
229 230 231 230 230 230 230 230 226 219 215 216 216 215 214 212 211 215 219 220 222 226 229 232 234 235 235 236 238 239 239 240 240 242 245 247 248 248 247 246 244 242 240 236 233 229 225 224 225 223 220 219 220 221 221 221 222 221 221 221 222 223 223 224 225 227 228 229 231 233 234 234 235 237 239 242 244 246 249 253 256 257 258 259 261 262
225 225 227 228 228 228 227 225 223 218 216 216 216 215 214 213 213 215 219 220 221 223 226 229 232 234 235 236 237 237 237 238 239 240 241 243 246 248 248 247 246 244 242 239 237 233 227 225 225 225 222 220 221 223 224 225 224 223 222 223 223 224 225 227 228 229 230 230 232 235 236 237 236 237 239 241 243 245 247 249 251 252 253 255 256 258
224 222 224 226 226 225 224 222 220 218 217 217 217 217 216 215 215 216 218 221 222 222 223 226 229 232 234 235 236 236 236 238 239 241 242 243 245 247 248 248 247 246 244 242 239 235 230 227 226 225 223 221 221 223 225 227 227 225 224 223 224 225 226 227 229 230 231 231 231 233 236 238 239 239 239 241 243 245 246 248 249 250 251 253 255 257
224 221 222 223 223 222 222 221 220 219 218 217 218 219 219 219 219 219 221 223 225 226 227 228 229 232 234 236 238 239 239 239 241 243 245 246 246 247 248 248 247 247 246 244 242 238 233 229 228 227 225 223 222 224 225 228 229 228 226 224 224 225 226 227 228 230 231 232 232 232 234 237 239 240 240 241 242 244 245 247 249 250 251 252 254 256
225 222 220 220 220 220 219 220 220 219 219 218 218 220 221 222 223 224 225 227 229 231 232 232 233 235 236 238 239 240 241 242 242 243 245 246 246 246 247 248 248 247 246 245 243 241 236 231 229 228 226 224 224 225 226 227 229 229 228 226 226 226 227 228 229 230 231 232 232 233 234 235 238 240 241 242 242 243 244 245 247 249 250 251 253 254
224 222 221 219 219 220 219 219 219 219 220 219 218 220 222 224 225 227 228 230 233 235 236 237 237 238 238 239 239 240 241 242 242 243 244 245 245 245 245 246 247 247 246 245 244 242 239 234 230 229 228 226 225 225 226 226 227 228 229 228 227 227 228 229 231 232 232 233 234 235 235 236 238 240 241 242 243 244 245 246 247 248 250 251 253 254
222 222 221 219 219 219 219 220 221 221 221 220 219 220 222 224 226 228 230 232 235 238 238 239 239 240 241 241 242 241 241 242 242 242 242 243 243 243 243 243 244 245 246 245 244 242 240 237 233 230 229 228 227 227 226 225 225 225 227 228 229 228 228 230 231 233 234 234 235 236 238 239 240 242 243 244 245 245 246 247 249 250 251 252 253 255
220 220 221 220 219 219 220 221 223 223 223 223 222 221 223 225 227 228 230 233 236 239 240 240 239 239 240 242 242 242 242 243 243 243 243 243 242 242 242 243 244 245 245 245 244 243 242 239 237 233 231 229 229 228 227 226 225 224 225 227 228 229 229 230 232 234 235 236 237 238 240 241 242 244 245 246 247 248 248 249 250 251 252 253 255 256
219 219 220 220 219 220 222 224 225 225 225 225 225 224 225 228 230 231 231 233 235 238 241 241 240 239 239 241 242 242 243 243 244 245 245 245 243 242 241 242 244 245 246 246 246 246 244 242 239 236 234 231 230 230 229 228 226 225 225 226 227 229 230 231 232 234 236 237 239 240 241 243 244 245 246 247 248 249 250 251 252 253 254 256 257 258
217 218 219 220 221 221 224 227 229 228 228 229 228 227 227 230 233 234 234 235 236 238 241 243 242 241 240 240 242 243 243 244 244 245 246 246 245 243 241 241 242 245 247 248 248 249 248 247 244 240 237 234 232 231 230 230 229 227 227 227 228 229 230 231 233 234 236 238 239 241 242 244 245 246 247 248 249 250 251 252 254 255 256 257 258 259
217 218 219 221 222 224 226 230 232 232 231 232 232 232 231 232 235 237 238 239 238 238 240 242 243 243 242 241 241 241 242 243 244 244 245 246 245 244 243 242 242 244 245 247 248 249 250 250 249 246 244 240 236 234 232 232 231 230 229 230 230 230 230 232 233 235 237 238 240 242 243 245 246 247 249 250 251 252 253 254 255 256 257 258 259 260
218 219 221 222 224 226 228 232 235 236 235 235 235 235 234 235 237 239 241 243 243 242 242 242 243 244 244 243 242 241 241 242 242 242 242 243 243 244 243 243 243 244 244 245 247 248 249 249 250 250 248 245 241 238 235 234 233 232 232 232 232 233 232 233 234 235 237 238 240 242 243 245 247 248 250 251 253 254 255 255 256 257 258 259 260 261
219 220 222 225 226 228 231 234 237 239 239 238 238 238 237 236 237 239 241 244 246 247 246 245 244 244 245 245 245 244 243 243 242 242 242 242 242 242 243 243 243 244 245 245 246 247 248 248 248 248 249 247 245 242 240 237 236 235 234 234 235 235 236 236 236 237 238 240 241 243 244 246 248 250 251 252 254 255 256 257 258 259 260 262 263 264
221 222 224 226 228 231 234 237 239 242 243 243 242 242 241 240 240 240 241 243 246 248 250 250 249 247 247 246 246 245 245 245 245 244 244 243 243 243 243 244 244 245 245 246 246 247 248 249 248 248 248 248 247 246 245 243 240 239 238 237 237 237 238 238 239 239 240 241 243 244 246 247 249 250 252 253 255 256 258 259 260 261 262 264 265 266
Height
10617 10618 10621 10622 10622 10623 10623 10625 10626 10628 10630 10630 10633 10636 10637 10636 10634 10632 10627 10625 10637 10645 10648 10649 10644 10645 10645 10640 10642 10645 10646 10655 10661 10654 10655 10664 10665 10667 10671 10674 10680 10678 10674 10680 10687 10692 10692 10691 10694 10697 10704 10714 10714 10713 10716 10717 10716 10713 10710 10711 10712 10714 10717 10720 10721 10721 10723 10727 10730 10732 10732 10730 10731 10732 10733 10730 10726 10725 10728 10730 10732 10734 10733 10733 10735 10737
10613 10614 10615 10615 10614 10616 10618 10620 10622 10625 10625 10622 10628 10631 10627 10629 10628 10628 10625 10614 10623 10639 10641 10640 10638 10638 10639 10636 10637 10638 10634 10641 10654 10651 10645 10653 10658 10660 10664 10667 10673 10673 10666 10670 10678 10683 10685 10686 10690 10691 10693 10706 10715 10714 10716 10718 10716 10711 10708 10709 10711 10713 10715 10718 10717 10714 10715 10720 10726 10729 10730 10730 10732 10732 10728 10722 10719 10720 10722 10724 10725 10727 10728 10728 10730 10732
10608 10608 10607 10607 10608 10612 10614 10616 10619 10619 10618 10616 10623 10625 10619 10623 10621 10623 10623 10608 10611 10630 10633 10632 10632 10628 10630 10631 10632 10633 10628 10627 10642 10647 10640 10644 10650 10650 10655 10659 10665 10669 10664 10664 10671 10676 10678 10680 10685 10687 10684 10693 10708 10714 10717 10717 10713 10707 10705 10705 10704 10703 10705 10706 10703 10699 10704 10716 10725 10725 10725 10725 10725 10725 10721 10713 10712 10715 10718 10720 10721 10723 10724 10724 10725 10726
10604 10601 10600 10603 10604 10608 10610 10612 10614 10612 10612 10613 10618 10618 10614 10617 10616 10617 10617 10605 10605 10619 10625 10626 10623 10620 10623 10625 10625 10627 10624 10619 10630 10641 10636 10637 10643 10642 10644 10649 10656 10663 10662 10662 10666 10670 10672 10674 10678 10683 10683 10685 10695 10707 10712 10710 10705 10698 10693 10691 10690 10688 10688 10686 10683 10686 10698 10711 10715 10712 10713 10715 10713 10715 10713 10708 10709 10712 10714 10717 10719 10720 10720 10721 10722 10722
10598 10595 10595 10599 10601 10603 10606 10607 10607 10607 10608 10609 10612 10612 10610 10611 10610 10611 10608 10602 10603 10610 10616 10617 10614 10614 10617 10618 10618 10619 10619 10615 10620 10632 10633 10631 10635 10636 10635 10640 10650 10656 10657 10658 10659 10663 10667 10670 10674 10682 10687 10687 10688 10696 10700 10696 10689 10683 10679 10677 10676 10675 10674 10674 10678 10687 10697 10700 10700 10701 10705 10708 10707 10708 10709 10707 10707 10710 10712 10714 10716 10717 10716 10717 10719 10720
10592 10590 10590 10595 10597 10599 10600 10600 10601 10602 10603 10604 10606 10607 10605 10604 10604 10606 10602 10597 10599 10603 10607 10606 10606 10610 10610 10611 10612 10609 10612 10614 10614 10621 10627 10626 10627 10630 10628 10632 10644 10650 10650 10651 10651 10657 10662 10665 10672 10680 10686 10687 10684 10684 10683 10681 10678 10677 10676 10672 10670 10670 10671 10675 10681 10689 10692 10690 10693 10697 10702 10705 10705 10705 10705 10705 10706 10708 10709 10710 10713 10713 10712 10713 10714 10716
10586 10585 10586 10589 10592 10594 10594 10594 10596 10598 10598 10599 10601 10601 10599 10598 10599 10601 10598 10593 10593 10596 10598 10597 10599 10604 10604 10604 10603 10601 10606 10610 10609 10612 10619 10620 10620 10624 10623 10625 10637 10644 10643 10643 10645 10650 10655 10659 10666 10673 10679 10681 10676 10672 10672 10673 10673 10674 10674 10672 10671 10672 10673 10675 10679 10684 10686 10686 10689 10695 10699 10701 10702 10702 10702 10703 10703 10704 10705 10706 10708 10709 10708 10709 10709 10710
10580 10579 10581 10584 10586 10588 10589 10589 10590 10592 10593 10593 10593 10593 10593 10594 10594 10594 10592 10589 10588 10589 10592 10592 10591 10594 10598 10597 10593 10594 10601 10603 10603 10603 10608 10613 10614 10617 10617 10618 10630 10637 10635 10637 10640 10642 10648 10653 10659 10667 10673 10674 10671 10666 10666 10667 10666 10667 10670 10672 10674 10673 10672 10673 10675 10678 10681 10683 10686 10690 10693 10695 10697 10698 10699 10700 10700 10699 10699 10701 10703 10705 10706 10706 10706 10705
10574 10574 10575 10577 10580 10582 10583 10584 10584 10586 10587 10587 10585 10585 10588 10589 10589 10586 10584 10585 10583 10582 10588 10588 10582 10584 10590 10590 10585 10588 10593 10595 10595 10595 10600 10606 10607 10609 10610 10613 10623 10629 10628 10629 10632 10635 10641 10646 10653 10661 10666 10669 10668 10661 10656 10659 10662 10664 10669 10673 10674 10673 10672 10672 10672 10673 10677 10680 10683 10685 10687 10689 10691 10694 10695 10695 10695 10694 10694 10696 10698 10702 10703 10703 10703 10701
10567 10569 10569 10570 10575 10578 10577 10577 10578 10579 10581 10580 10578 10579 10581 10582 10581 10579 10579 10580 10577 10578 10585 10582 10575 10576 10582 10582 10580 10581 10584 10587 10588 10588 10593 10597 10599 10601 10603 10607 10616 10621 10619 10621 10626 10633 10641 10648 10654 10657 10659 10663 10662 10651 10648 10656 10662 10664 10670 10674 10674 10672 10671 10671 10670 10671 10674 10678 10679 10679 10681 10683 10686 10688 10689 10689 10689 10690 10691 10693 10694 10697 10698 10698 10700 10699
10558 10563 10565 10564 10569 10572 10569 10569 10571 10572 10575 10574 10572 10573 10574 10574 10573 10572 10574 10574 10571 10575 10580 10575 10568 10569 10574 10575 10575 10576 10577 10580 10581 10581 10585 10590 10592 10594 10595 10600 10608 10611 10612 10617 10624 10631 10638 10644 10648 10650 10653 10655 10652 10645 10647 10655 10660 10664 10669 10672 10672 10670 10669 10669 10669 10671 10675 10677 10677 10676 10676 10678 10680 10682 10682 10682 10685 10687 10688 10688 10690 10691 10692 10693 10696 10695
10550 10554 10559 10559 10561 10564 10562 10563 10566 10566 10569 10568 10566 10566 10566 10566 10567 10567 10568 10567 10567 10571 10571 10566 10562 10563 10568 10569 10570 10571 10570 10573 10575 10575 10578 10584 10587 10588 10590 10596 10601 10603 10606 10611 10617 10622 10627 10631 10637 10644 10648 10648 10646 10644 10647 10653 10658 10663 10666 10668 10669 10668 10667 10667 10669 10673 10676 10677 10676 10675 10675 10675 10675 10676 10676 10677 10680 10682 10683 10684 10686 10688 10688 10689 10691 10690
10544 10546 10552 10555 10554 10556 10557 10558 10560 10561 10563 10562 10559 10559 10560 10559 10560 10562 10562 10559 10562 10566 10562 10558 10558 10558 10562 10563 10565 10566 10566 10567 10570 10571 10574 10579 10583 10585 10588 10593 10597 10597 10601 10605 10609 10616 10621 10624 10629 10634 10639 10640 10639 10641 10645 10651 10657 10661 10663 10666 10666 10665 10665 10666 10669 10672 10673 10674 10674 10674 10674 10673 10672 10673 10672 10673 10675 10677 10679 10680 10682 10683 10684 10684 10685 10685
10539 10539 10544 10548 10547 10550 10552 10552 10554 10555 10556 10555 10552 10552 10554 10554 10554 10556 10555 10553 10555 10558 10556 10553 10553 10554 10557 10559 10561 10562 10561 10562 10564 10567 10572 10575 10579 10583 10586 10590 10592 10593 10597 10603 10608 10614 10618 10620 10623 10626 10630 10632 10635 10639 10645 10650 10654 10657 10661 10663 10661 10661 10663 10665 10667 10668 10669 10670 10671 10671 10672 10672 10671 10670 10670 10671 10672 10674 10675 10675 10677 10678 10679 10679 10679 10679
10531 10533 10536 10539 10540 10543 10546 10546 10547 10548 10549 10549 10546 10546 10549 10549 10548 10549 10547 10546 10548 10551 10550 10549 10548 10551 10554 10555 10555 10556 10555 10557 10560 10565 10569 10573 10577 10581 10584 10587 10589 10592 10597 10603 10608 10612 10615 10619 10623 10625 10628 10631 10636 10641 10645 10647 10649 10653 10657 10658 10656 10656 10659 10661 10664 10665 10666 10668 10668 10669 10670 10670 10669 10668 10668 10668 10668 10669 10670 10671 10673 10674 10674 10674 10674 10674
10523 10526 10528 10531 10533 10537 10541 10541 10540 10541 10542 10542 10540 10540 10543 10543 10541 10541 10541 10541 10543 10545 10546 10545 10546 10548 10551 10551 10550 10550 10552 10555 10559 10563 10567 10571 10575 10578 10582 10585 10588 10592 10598 10603 10607 10611 10615 10620 10622 10625 10628 10630 10635 10640 10644 10644 10643 10644 10647 10648 10648 10651 10654 10656 10659 10662 10664 10666 10667 10667 10667 10667 10666 10666 10666 10665 10664 10665 10666 10667 10669 10670 10670 10669 10669 10671
10516 10518 10519 10523 10527 10531 10534 10533 10534 10536 10535 10535 10536 10536 10536 10536 10535 10535 10535 10536 10538 10541 10541 10542 10544 10544 10545 10547 10547 10548 10550 10553 10557 10562 10565 10569 10573 10577 10581 10585 10590 10595 10599 10602 10606 10610 10614 10618 10619 10622 10624 10626 10631 10636 10638 10635 10630 10630 10631 10632 10635 10642 10647 10651 10655 10659 10662 10664 10666 10666 10664 10663 10663 10663 10662 10661 10660 10661 10662 10664 10665 10665 10665 10665 10666 10667
10509 10510 10512 10517 10521 10524 10526 10526 10528 10531 10529 10529 10531 10531 10529 10529 10529 10530 10530 10532 10533 10536 10536 10537 10539 10540 10541 10544 10544 10545 10548 10551 10556 10560 10563 10567 10571 10575 10579 10583 10587 10591 10593 10595 10598 10603 10608 10613 10617 10619 10621 10623 10625 10625 10622 10619 10618 10619 10622 10624 10627 10633 10641 10647 10653 10657 10660 10662 10665 10664 10661 10659 10658 10658 10658 10656 10656 10657 10658 10660 10661 10661 10661 10660 10661 10663
10502 10503 10507 10511 10514 10515 10518 10520 10521 10523 10524 10524 10524 10525 10524 10523 10525 10526 10526 10528 10529 10530 10531 10532 10533 10536 10539 10541 10541 10542 10546 10550 10554 10557 10561 10565 10569 10572 10575 10578 10580 10582 10585 10589 10592 10595 10599 10605 10611 10614 10617 10616 10611 10609 10610 10612 10614 10617 10621 10625 10629 10633 10637 10641 10648 10654 10657 10660 10662 10659 10653 10651 10651 10651 10652 10651 10651 10652 10653 10655 10656 10656 10656 10656 10657 10657
10493 10498 10502 10504 10506 10509 10512 10513 10514 10517 10518 10518 10518 10519 10518 10518 10520 10521 10522 10524 10524 10525 10527 10527 10529 10532 10536 10537 10538 10541 10545 10549 10552 10556 10560 10564 10567 10569 10571 10574 10577 10577 10580 10586 10590 10591 10592 10596 10601 10603 10603 10599 10596 10600 10607 10611 10614 10617 10620 10624 10629 10633 10634 10636 10640 10646 10651 10654 10653 10648 10642 10641 10642 10644 10645 10646 10646 10647 10648 10650 10651 10651 10652 10652 10652 10652
10485 10491 10496 10496 10499 10503 10505 10506 10508 10509 10511 10512 10513 10514 10513 10513 10515 10516 10518 10519 10519 10521 10523 10523 10525 10529 10532 10533 10536 10540 10543 10547 10551 10556 10559 10562 10565 10567 10568 10571 10574 10575 10577 10581 10585 10589 10590 10593 10593 10590 10588 10588 10592 10598 10604 10608 10612 10615 10618 10622 10626 10630 10632 10632 10633 10637 10642 10643 10638 10634 10631 10632 10634 10637 10639 10641 10641 10642 10643 10645 10646 10647 10647 10648 10648 10647
10477 10484 10488 10489 10493 10496 10498 10501 10501 10502 10506 10508 10507 10508 10509 10509 10510 10512 10514 10514 10515 10518 10519 10520 10523 10526 10527 10529 10533 10538 10540 10545 10552 10557 10559 10561 10564 10565 10565 10567 10570 10571 10574 10576 10579 10582 10586 10588 10586 10581 10580 10584 10588 10593 10599 10604 10608 10611 10615 10619 10623 10627 10630 10631 10629 10629 10631 10630 10625 10623 10623 10625 10627 10631 10634 10635 10636 10638 10638 10640 10641 10642 10643 10644 10644 10644
10471 10479 10482 10484 10488 10489 10491 10494 10495 10498 10502 10502 10500 10502 10504 10505 10506 10508 10509 10510 10512 10514 10516 10518 10520 10522 10524 10526 10530 10535 10538 10543 10551 10556 10557 10557 10559 10560 10559 10561 10563 10564 10568 10571 10574 10576 10579 10580 10578 10574 10575 10578 10582 10587 10593 10599 10603 10608 10612 10615 10619 10624 10628 10629 10627 10624 10622 10619 10616 10615 10617 10620 10623 10626 10629 10630 10631 10633 10633 10635 10637 10638 10639 10639 10640 10640
10468 10475 10476 10478 10481 10483 10485 10488 10490 10494 10496 10496 10496 10497 10499 10500 10501 10502 10504 10506 10509 10510 10512 10515 10517 10518 10520 10522 10525 10530 10536 10542 10547 10551 10552 10551 10551 10552 10552 10554 10557 10559 10563 10566 10569 10571 10574 10575 10572 10569 10569 10573 10577 10582 10588 10594 10599 10603 10607 10611 10616 10621 10624 10624 10621 10618 10616 10613 10611 10612 10615 10617 10619 10622 10624 10625 10626 10627 10628 10629 10631 10633 10634 10635 10635 10635
10463 10467 10469 10472 10475 10477 10481 10483 10485 10489 10490 10491 10492 10492 10493 10495 10496 10497 10500 10503 10505 10507 10508 10510 10512 10514 10516 10518 10521 10526 10534 10540 10542 10543 10543 10543 10545 10546 10547 10549 10552 10555 10558 10560 10563 10567 10570 10571 10569 10566 10567 10570 10573 10577 10583 10589 10594 10599 10604 10609 10614 10618 10618 10614 10610 10609 10609 10608 10608 10612 10614 10615 10616 10618 10619 10620 10621 10621 10622 10624 10626 10627 10629 10630 10630 10630
10457 10460 10463 10467 10470 10472 10476 10478 10481 10483 10485 10486 10487 10487 10489 10490 10491 10494 10496 10499 10501 10503 10505 10506 10509 10510 10512 10514 10517 10522 10528 10533 10533 10533 10533 10535 10538 10541 10543 10545 10548 10551 10553 10555 10559 10563 10566 10568 10566 10565 10565 10568 10571 10575 10580 10585 10590 10595 10600 10605 10609 10609 10606 10603 10603 10604 10604 10605 10607 10610 10611 10612 10613 10614 10615 10615 10615 10615 10617 10618 10620 10622 10624 10624 10625 10625
10451 10455 10459 10462 10464 10467 10471 10475 10477 10477 10479 10482 10481 10482 10483 10485 10487 10490 10492 10495 10498 10498 10501 10504 10506 10507 10508 10511 10514 10517 10521 10522 10523 10525 10526 10528 10532 10536 10539 10541 10544 10546 10549 10552 10555 10558 10560 10562 10562 10561 10563 10566 10569 10572 10576 10580 10585 10591 10595 10599 10599 10597 10596 10598 10601 10602 10602 10603 10605 10607 10607 10609 10610 10611 10612 10612 10611 10611 10612 10614 10615 10617 10618 10619 10619 10619
10447 10450 10453 10455 10459 10463 10467 10471 10472 10471 10474 10477 10476 10477 10479 10481 10484 10487 10489 10491 10493 10495 10498 10501 10503 10503 10504 10507 10509 10511 10513 10515 10517 10519 10521 10523 10527 10531 10534 10537 10539 10541 10544 10547 10549 10551 10554 10555 10556 10557 10560 10563 10566 10569 10572 10576 10580 10585 10589 10591 10591 10591 10593 10595 10598 10600 10600 10600 10602 10603 10604 10605 10607 10608 10608 10608 10607 10607 10608 10609 10610 10611 10613 10614 10614 10615
10441 10443 10445 10450 10455 10458 10462 10465 10465 10466 10469 10471 10471 10473 10476 10477 10480 10484 10486 10488 10490 10494 10496 10498 10498 10499 10500 10502 10504 10506 10508 10510 10513 10514 10516 10519 10522 10526 10529 10531 10534 10536 10539 10542 10544 10547 10549 10551 10552 10553 10556 10560 10563 10566 10569 10572 10576 10580 10583 10585 10586 10587 10589 10591 10594 10596 10596 10597 10599 10600 10600 10601 10603 10604 10603 10603 10604 10604 10604 10605 10606 10607 10608 10609 10610 10610
10433 10436 10440 10445 10450 10452 10455 10458 10460 10462 10464 10465 10468 10470 10473 10475 10477 10480 10482 10484 10487 10490 10492 10492 10493 10495 10496 10498 10499 10502 10504 10507 10509 10511 10513 10515 10517 10520 10523 10526 10529 10532 10535 10538 10540 10542 10544 10546 10548 10549 10552 10556 10559 10562 10565 10568 10571 10575 10577 10579 10581 10583 10584 10587 10590 10592 10592 10593 10595 10595 10596 10597 10599 10599 10599 10599 10600 10600 10601 10602 10601 10602 10603 10604 10605 10606
10427 10431 10435 10439 10443 10446 10449 10452 10454 10456 10459 10462 10465 10467 10470 10473 10475 10477 10479 10481 10483 10486 10487 10488 10489 10491 10493 10494 10496 10498 10500 10503 10506 10508 10510 10512 10513 10515 10518 10521 10524 10527 10530 10533 10535 10537 10539 10541 10544 10545 10548 10551 10554 10557 10560 10563 10566 10570 10572 10574 10576 10578 10581 10583 10585 10587 10588 10589 10590 10591 10592 10593 10594 10594 10594 10595 10595 10596 10596 10597 10596 10596 10597 10598 10599 10600
10421 10425 10429 10432 10436 10440 10443 10446 10448 10452 10455 10458 10460 10464 10467 10469 10470 10473 10475 10477 10479 10482 10483 10484 10486 10487 10488 10490 10492 10494 10495 10499 10502 10505 10507 10508 10509 10511 10513 10516 10519 10522 10525 10528 10530 10533 10535 10538 10540 10541 10544 10547 10549 10552 10555 10557 10561 10565 10568 10570 10572 10575 10577 10578 10580 10583 10584 10584 10585 10586 10587 10589 10590 10591 10590 10589 10589 10590 10591 10591 10591 10591 10591 10592 10594 10594
10415 10419 10422 10425 10431 10435 10438 10440 10443 10446 10449 10452 10455 10458 10460 10462 10464 10466 10469 10472 10476 10478 10479 10479 10480 10482 10484 10486 10487 10489 10491 10494 10497 10500 10502 10503 10505 10507 10508 10511 10514 10517 10520 10523 10525 10528 10531 10534 10536 10538 10540 10542 10545 10548 10550 10552 10556 10560 10563 10566 10568 10570 10572 10574 10576 10578 10579 10579 10580 10580 10582 10585 10586 10586 10584 10582 10582 10584 10585 10586 10586 10586 10586 10587 10588 10589
10408 10412 10416 10420 10426 10430 10432 10435 10437 10439 10442 10446 10450 10452 10453 10455 10458 10461 10465 10468 10471 10472 10472 10472 10474 10477 10479 10481 10482 10485 10487 10489 10492 10495 10497 10499 10501 10502 10504 10506 10509 10512 10515 10518 10520 10524 10527 10529 10532 10534 10535 10538 10540 10543 10545 10547 10550 10554 10558 10561 10563 10565 10567 10569 10571 10571 10572 10573 10574 10575 10577 10579 10580 10579 10578 10577 10577 10578 10580 10581 10580 10580 10580 10581 10581 10583
10401 10405 10411 10416 10420 10424 10426 10428 10431 10434 10438 10442 10445 10446 10447 10449 10453 10457 10461 10463 10466 10467 10467 10468 10470 10472 10474 10476 10478 10481 10483 10485 10487 10490 10492 10495 10497 10498 10500 10502 10504 10506 10509 10512 10515 10518 10521 10524 10527 10529 10531 10533 10536 10538 10540 10543 10546 10549 10553 10556 10558 10560 10562 10563 10564 10564 10565 10567 10568 10569 10571 10572 10572 10572 10572 10572 10573 10573 10574 10575 10574 10575 10575 10575 10576 10577
10394 10399 10404 10409 10413 10416 10419 10421 10424 10430 10434 10437 10439 10440 10442 10445 10448 10453 10455 10458 10462 10464 10464 10464 10466 10467 10470 10472 10474 10477 10479 10481 10483 10485 10488 10490 10492 10493 10495 10497 10499 10501 10503 10506 10509 10512 10515 10519 10522 10524 10526 10528 10530 10533 10536 10538 10541 10544 10548 10550 10553 10555 10556 10557 10557 10558 10560 10561 10561 10563 10565 10565 10566 10567 10568 10568 10568 10569 10569 10569 10569 10570 10570 10571 10571 10572
10387 10391 10396 10400 10404 10408 10411 10414 10418 10423 10427 10429 10432 10434 10438 10441 10444 10447 10449 10452 10457 10460 10460 10460 10461 10463 10466 10468 10470 10473 10475 10477 10480 10482 10483 10485 10487 10489 10490 10492 10494 10496 10498 10501 10503 10506 10509 10513 10516 10519 10521 10523 10525 10528 10530 10533 10536 10539 10542 10545 10547 10549 10551 10551 10552 10553 10555 10555 10556 10557 10559 10560 10561 10562 10563 10564 10564 10565 10565 10565 10565 10565 10565 10566 10566 10566
10378 10382 10387 10391 10395 10400 10404 10408 10411 10415 10419 10422 10425 10429 10432 10435 10438 10441 10443 10447 10451 10454 10454 10456 10458 10460 10462 10464 10466 10469 10471 10473 10476 10477 10479 10480 10482 10484 10486 10488 10490 10492 10494 10496 10498 10501 10504 10507 10509 10512 10515 10518 10520 10522 10525 10527 10530 10532 10536 10539 10541 10542 10544 10545 10546 10548 10549 10550 10552 10552 10552 10554 10556 10557 10558 10559 10560 10561 10561 10561 10561 10561 10561 10561 10561 10561
10369 10374 10379 10382 10387 10392 10396 10399 10403 10408 10412 10416 10419 10423 10426 10429 10432 10435 10437 10440 10444 10447 10449 10451 10453 10455 10457 10460 10462 10464 10466 10468 10470 10471 10474 10476 10478 10480 10481 10483 10486 10488 10490 10491 10493 10496 10499 10501 10502 10505 10509 10512 10515 10516 10519 10522 10524 10527 10530 10533 10535 10536 10538 10539 10541 10542 10543 10545 10546 10546 10546 10547 10549 10551 10553 10554 10554 10555 10555 10555 10555 10556 10556 10555 10555 10556
10364 10368 10371 10375 10381 10385 10389 10393 10397 10400 10404 10408 10413 10417 10420 10423 10426 10428 10431 10435 10439 10441 10444 10447 10449 10451 10453 10455 10457 10459 10460 10462 10464 10467 10469 10471 10474 10475 10476 10478 10480 10482 10484 10486 10488 10491 10493 10495 10496 10499 10502 10506 10508 10511 10513 10516 10519 10521 10524 10526 10529 10530 10532 10533 10534 10536 10537 10539 10540 10540 10541 10541 10542 10545 10548 10548 10548 10549 10549 10548 10549 10549 10550 10549 10549 10550
10358 10362 10366 10371 10375 10379 10382 10387 10390 10393 10396 10401 10406 10410 10414 10418 10420 10423 10426 10430 10434 10437 10440 10443 10445 10446 10448 10450 10452 10454 10456 10458 10461 10463 10464 10466 10469 10470 10471 10473 10475 10476 10478 10480 10482 10485 10487 10489 10490 10493 10496 10500 10502 10505 10508 10511 10513 10515 10517 10520 10523 10524 10526 10527 10528 10530 10531 10532 10534 10535 10535 10535 10536 10538 10540 10541 10542 10543 10542 10542 10542 10542 10542 10542 10543 10543
10353 10357 10361 10365 10368 10371 10375 10380 10383 10386 10389 10394 10399 10404 10409 10413 10416 10418 10422 10426 10429 10432 10435 10438 10440 10442 10443 10445 10448 10450 10451 10454 10456 10457 10459 10461 10463 10465 10466 10467 10468 10470 10472 10474 10476 10478 10480 10482 10484 10487 10490 10493 10496 10498 10502 10505 10507 10509 10511 10514 10516 10518 10519 10520 10522 10523 10524 10526 10527 10528 10529 10529 10529 10531 10532 10534 10535 10535 10535 10535 10535 10534 10534 10535 10535 10535
10349 10353 10356 10359 10362 10365 10370 10374 10377 10380 10384 10388 10394 10399 10404 10408 10411 10414 10418 10422 10424 10426 10429 10432 10435 10437 10438 10440 10442 10445 10446 10448 10450 10452 10453 10455 10457 10459 10460 10461 10462 10464 10466 10468 10470 10472 10474 10476 10478 10481 10484 10486 10489 10492 10495 10498 10501 10503 10505 10507 10509 10511 10512 10513 10514 10515 10517 10518 10520 10521 10522 10523 10523 10524 10524 10526 10527 10528 10528 10528 10527 10526 10526 10526 10526 10527
10345 10349 10351 10355 10358 10362 10366 10369 10371 10375 10378 10383 10388 10393 10398 10402 10406 10410 10414 10417 10419 10421 10424 10427 10429 10431 10433 10435 10437 10439 10441 10442 10443 10445 10447 10449 10451 10453 10454 10455 10457 10458 10460 10461 10463 10465 10467 10469 10472 10475 10477 10480 10483 10486 10488 10492 10494 10496 10498 10499 10501 10503 10504 10505 10506 10508 10509 10511 10512 10514 10515 10516 10516 10516 10517 10518 10519 10520 10520 10520 10520 10519 10519 10518 10518 10519
10341 10344 10347 10351 10354 10357 10361 10363 10366 10370 10374 10378 10383 10388 10393 10397 10401 10405 10409 10411 10414 10416 10418 10421 10424 10426 10427 10429 10431 10433 10435 10437 10438 10440 10441 10443 10445 10446 10448 10450 10451 10452 10453 10455 10457 10459 10461 10463 10466 10469 10471 10474 10477 10479 10482 10485 10487 10489 10490 10491 10493 10495 10497 10498 10500 10501 10502 10504 10505 10506 10507 10507 10508 10509 10509 10509 10510 10511 10511 10511 10511 10511 10511 10511 10511 10512
10337 10340 10343 10347 10350 10353 10355 10358 10361 10365 10369 10374 10379 10384 10389 10392 10396 10400 10403 10406 10408 10410 10412 10414 10417 10420 10421 10423 10425 10427 10430 10431 10433 10434 10436 10437 10439 10440 10442 10444 10445 10446 10448 10450 10451 10453 10455 10457 10460 10462 10465 10468 10470 10472 10475 10477 10480 10481 10483 10484 10485 10488 10490 10491 10493 10494 10495 10496 10498 10498 10499 10499 10499 10499 10500 10500 10501 10501 10502 10502 10502 10503 10503 10504 10504 10504
10332 10335 10339 10342 10345 10348 10351 10353 10356 10361 10366 10370 10375 10380 10384 10388 10391 10394 10397 10399 10402 10404 10406 10408 10410 10413 10415 10417 10419 10422 10424 10425 10427 10428 10429 10431 10433 10434 10436 10438 10439 10441 10443 10444 10445 10447 10448 10451 10454 10456 10459 10462 10464 10465 10467 10469 10472 10474 10475 10476 10478 10481 10483 10485 10486 10487 10488 10489 10490 10491 10491 10491 10491 10491 10491 10492 10492 10493 10494 10494 10494 10495 10495 10496 10496 10495
10328 10331 10335 10338 10341 10344 10346 10348 10352 10357 10362 10366 10370 10375 10379 10383 10385 10388 10390 10392 10395 10398 10401 10402 10404 10406 10408 10410 10413 10416 10417 10419 10420 10422 10423 10425 10426 10428 10430 10431 10433 10435 10437 10438 10439 10441 10442 10444 10447 10450 10452 10455 10457 10459 10460 10462 10464 10466 10467 10468 10469 10472 10475 10477 10478 10480 10480 10481 10482 10482 10483 10483 10483 10483 10484 10484 10484 10485 10485 10485 10486 10486 10486 10486 10486 10486
10325 10329 10332 10335 10337 10340 10342 10345 10348 10353 10358 10362 10366 10370 10374 10378 10380 10382 10384 10386 10388 10391 10394 10396 10398 10400 10402 10404 10407 10409 10410 10412 10413 10414 10416 10418 10419 10421 10423 10425 10427 10428 10430 10432 10433 10434 10436 10438 10440 10442 10444 10446 10449 10451 10453 10455 10456 10458 10459 10460 10461 10463 10465 10467 10469 10470 10471 10472 10472 10473 10473 10474 10474 10475 10475 10475 10476 10476 10476 10476 10477 10477 10477 10477 10477 10477
10322 10326 10328 10331 10334 10337 10339 10342 10345 10349 10353 10357 10361 10365 10369 10372 10375 10377 10379 10380 10381 10384 10386 10389 10392 10394 10396 10397 10399 10401 10403 10404 10406 10407 10409 10411 10412 10414 10416 10418 10420 10421 10423 10425 10427 10428 10429 10431 10433 10434 10436 10437 10440 10443 10445 10447 10449 10450 10451 10453 10454 10455 10456 10458 10460 10461 10462 10463 10463 10464 10465 10466 10466 10466 10466 10466 10466 10466 10466 10466 10467 10468 10468 10468 10468 10468
10319 10322 10325 10328 10331 10334 10336 10339 10342 10345 10348 10352 10357 10360 10363 10367 10369 10371 10373 10375 10376 10377 10378 10381 10383 10386 10388 10390 10392 10394 10395 10397 10398 10400 10402 10404 10406 10408 10409 10411 10413 10414 10416 10418 10420 10421 10422 10423 10425 10426 10428 10429 10432 10435 10437 10439 10441 10443 10444 10445 10446 10447 10448 10450 10451 10453 10454 10454 10455 10456 10456 10457 10457 10457 10457 10457 10458 10458 10457 10457 10457 10458 10459 10459 10458 10458